San Juan, PR

7:59 PM AST on April 24, 2018 (GMT -0400)
Luis Munoz Marin International

Weather History for TJSJ - February, 2015

Change the Weather History Date:

Sunday, February 8, 2015

  Actual Average Record
Temperature  
Mean Temperature 78 °F 78 °F  
Max Temperature 83 °F 84 °F 92 °F (1983)
Min Temperature 73 °F 72 °F 63 °F (1968)
Degree Days  
Heating Degree Days 0 0  
Month to date heating degree days 0 0  
Since 1 July heating degree days 0 0  
Cooling Degree Days 13 13  
Month to date cooling degree days 109 104  
Year to date cooling degree days 547 495  
Growing Degree Days 28 (Base 50)    
Moisture  
Dew Point 72 °F    
Average Humidity 79    
Maximum Humidity 88    
Minimum Humidity 69    
Precipitation  
Precipitation 0.01 in 0.09 in 1.06 in (1935)
Month to date precipitation 0.26 0.74  
Year to date precipitation 5.38 4.50  
Sea Level Pressure  
Sea Level Pressure 30.00 in    
Wind  
Wind Speed 7 mph (East)    
Max Wind Speed 18 mph    
Max Gust Speed 25 mph    
Visibility 10 miles    
Events Rain    
T = Trace of Precipitation, MM = Missing Value Source: NWS Daily Summary

Daily Weather History Graph

Daily Weather History Graph

Search for Another Location

Airport or City:

Astronomy

Feb. 08, 2015 Rise Set
Actual Time 6:55 AM AST 6:21 PM AST
Civil Twilight 6:32 AM AST 6:44 PM AST
Nautical Twilight 6:06 AM AST 7:09 PM AST
Astronomical Twilight 5:40 AM AST 7:35 PM AST
Moon 10:13 PM AST (2/8) 9:38 AM AST (2/8)
Length of Visible Light 12h 11m
Length of Day
11h 26m
Waning Gibbous, 81% of the Moon is Illuminated
Feb 8
Waning Gibbous
Feb 11
Last Quarter
Feb 18
New
Feb 25
First Quarter
Mar 5
Full

Hourly Weather History & Observations

Time (AST) Temp. Heat Index Dew Point Humidity Pressure Visibility Wind Dir Wind Speed Gust Speed Precip Events Conditions
12:56 AM 75.9 °F - 70.0 °F 82% 30.03 in 10.0 mi Calm Calm - N/A   Partly Cloudy
1:56 AM 75.9 °F - 70.0 °F 82% 30.01 in 10.0 mi Calm Calm - N/A   Partly Cloudy
2:56 AM 75.0 °F - 70.0 °F 84% 29.99 in 10.0 mi Calm Calm - N/A   Scattered Clouds
3:56 AM 75.0 °F - 70.0 °F 84% 29.97 in 10.0 mi Calm Calm - N/A   Scattered Clouds
4:56 AM 73.9 °F - 70.0 °F 87% 29.97 in 10.0 mi Calm Calm - N/A   Scattered Clouds
5:56 AM 75.0 °F - 70.0 °F 84% 29.98 in 10.0 mi Calm Calm - N/A   Scattered Clouds
6:56 AM 75.0 °F - 71.1 °F 87% 30.00 in 10.0 mi Calm Calm - 0.00 in   Scattered Clouds
7:56 AM 75.9 °F - 71.1 °F 85% 30.02 in 10.0 mi Calm Calm - N/A   Scattered Clouds
8:56 AM 79.0 °F - 72.0 °F 79% 30.04 in 10.0 mi Variable 3.5 mph - N/A   Scattered Clouds
9:56 AM 81.0 °F 85.2 °F 72.0 °F 74% 30.06 in 10.0 mi ENE 11.5 mph - N/A   Scattered Clouds
10:56 AM 81.0 °F 85.2 °F 72.0 °F 74% 30.06 in 10.0 mi East 12.7 mph - N/A   Mostly Cloudy
11:56 AM 81.0 °F 85.2 °F 72.0 °F 74% 30.04 in 10.0 mi East 13.8 mph - 0.00 in   Scattered Clouds
12:56 PM 82.0 °F 86.7 °F 72.0 °F 71% 30.01 in 10.0 mi ENE 16.1 mph 21.9 mph N/A   Scattered Clouds
1:56 PM 82.9 °F 87.5 °F 71.1 °F 67% 29.98 in 10.0 mi ENE 17.3 mph 21.9 mph N/A   Scattered Clouds
2:56 PM 82.0 °F 86.7 °F 72.0 °F 71% 29.96 in 10.0 mi East 15.0 mph - N/A   Scattered Clouds
3:56 PM 82.0 °F 86.3 °F 71.1 °F 69% 29.95 in 10.0 mi East 15.0 mph - N/A   Mostly Cloudy
4:56 PM 80.1 °F 83.8 °F 72.0 °F 76% 29.96 in 10.0 mi East 16.1 mph - N/A   Mostly Cloudy
5:56 PM 79.0 °F - 72.0 °F 79% 29.96 in 10.0 mi East 12.7 mph - N/A   Scattered Clouds
6:56 PM 77.0 °F - 73.0 °F 88% 29.98 in 9.0 mi East 9.2 mph - 0.00 in Rain Light Rain
7:56 PM 75.9 °F - 75.0 °F 97% 29.98 in 10.0 mi ENE 8.1 mph - 0.01 in   Mostly Cloudy
8:56 PM 77.0 °F - 73.0 °F 88% 29.99 in 10.0 mi East 5.8 mph - N/A   Scattered Clouds
9:56 PM 77.0 °F - 73.0 °F 88% 30.00 in 10.0 mi East 6.9 mph - N/A   Scattered Clouds
10:56 PM 77.0 °F - 72.0 °F 84% 30.01 in 10.0 mi SE 4.6 mph - N/A   Scattered Clouds
11:56 PM 75.9 °F - 71.1 °F 85% 30.00 in 10.0 mi SSE 5.8 mph - N/A   Mostly Cloudy